Location: Central Falls
(41.8900°N, 71.3929°W)
Time: 06:37:17
(UTC+00:00)

Altair - Pass Details

Date: 14 December 2023
Orbit: 1501 x 1682 km, 47.2° (Epoch: 29 February)

Event Time Altitude Azimuth Distance (km) Brightness Sun altitude
Rises 13:21:51 0° 276° (W) 4,846 9.6 10.4°
Reaches altitude 10° 13:25:05 10° 280° (W) 3,836 9.1 10.8°
Maximum altitude 13:34:45 64° 1° (N) 1,712 7.8 12.1°
Drops below altitude 10° 13:44:02 10° 82° (E) 3,698 10.1 13.2°
Sets 13:47:06 0° 86° (E) 4,663 10.6 13.6°
